Flag for Switzerland Weather past 2 weeks in Yverdon-les-Bains, Vaud, Switzerland

Now
26 °F

Chilly.


Feels Like: 19 °F
Forecast: 17 / 31 °F
Wind: 6 mph from Southwest

Location: Payerne

Current Time: Dec 29, 2014 at 4:27:53 PM

Latest Report: Dec 29, 2014 at 3:00 PM


Visibility: N/A

Pressure: 30.60 "Hg

Humidity: 82%

Dew point: 21 °F

Location of Yverdon-les-BainsLocation

Historic Weather in Yverdon-les-Bains — Graph

°F

Yverdon-les-Bains temperature yesterday

Maximum temperature yesterday: 35 °F (at 12:00 AM)
Minimum temperature yesterday: 25 °F (at 11:00 PM)
Average temperature yesterday: 30 °F

Past Weeks' High & Low Weather Summary

 TemperatureHumidityPressure
High56 °F (Dec 19, 2:00 PM)100% (Dec 16, 3:00 AM)30.68 "Hg (Dec 16, 3:00 AM)
Low13 °F (Dec 29, 8:00 AM)49% (Dec 26, 2:00 PM)29.62 "Hg (Dec 28, 2:00 AM)
Average39 °F82%30.25 "Hg
* Reported Dec 14 3:00 PM — Dec 29 3:00 PM, Yverdon-les-Bains, Weather by CustomWeather, © 2014

Note: Actual official high and low records may vary slightly from our data, if they occured in-between our weather recording intervals... More about our weather records

Advertising

Yverdon-les-Bains weather history for previous 24 hours

 ConditionsComfort  
Time TempWeatherWind HumidityBarometerVisibility
3:00 PM
Dec 29
26 °FChilly.6 mph82%30.60 "HgN/A
2:00 PM26 °FChilly.6 mph73%30.60 "HgN/A
1:00 PM24 °FOvercast.5 mph71%30.62 "Hg7 mi
12:00 PM23 °FCold.5 mph72%30.64 "HgN/A
11:00 AM20 °FCold.3 mph76%30.67 "HgN/A
10:00 AM17 °FPassing clouds.3 mph80%30.67 "Hg10 mi
9:00 AM13 °FCold.1 mph75%30.68 "HgN/A
8:00 AM13 °FCold.1 mph89%30.66 "HgN/A
7:00 AM17 °FFog.6 mph77%30.62 "Hg7 mi
6:00 AM15 °FCold.3 mph85%30.60 "HgN/A
5:00 AM17 °FCold.5 mph77%30.59 "HgN/A
4:00 AM19 °FCold.7 mph75%30.56 "HgN/A
3:00 AM20 °FCold.7 mph78%30.53 "HgN/A
2:00 AM22 °FCold.7 mph77%30.50 "HgN/A
1:00 AM23 °FFog.9 mph77%30.47 "Hg9 mi
12:00 AM24 °FCold.13 mph76%30.42 "HgN/A
11:00 PM
Dec 28
25 °FChilly.16 mph77%30.39 "HgN/A
10:00 PM26 °FFog.16 mph76%30.36 "Hg9 mi
9:00 PM27 °FChilly.15 mph75%30.31 "HgN/A
8:00 PM27 °FChilly.14 mph76%30.28 "HgN/A
7:00 PM27 °FPassing clouds.12 mph77%30.24 "Hg11 mi
6:00 PM27 °FChilly.9 mph79%30.20 "HgN/A
5:00 PM28 °FChilly.10 mph77%30.15 "HgN/A
4:00 PM28 °FChilly.9 mph83%30.11 "HgN/A
Weather by CustomWeather, © 2014

See weather overviewHow to use our weather pages